www.pogodaiklimat.ru

Погода и климат >> Архив погоды >> Россия >> Камчатский край >> Остров Беринга


ПОГОДА на Острове Беринга

  • Прогноз погоды на Острове Беринга
  • Монитор погоды на Острове Беринга
  • Климат города

АРХИВ ПОГОДЫ на Острове Беринга

Время (UTC), дата Ветер
(напр.,м/с)
 
Видим.   Явления Облачность Т
(С)
Тd
(С)
f
(%)
Тe
(С)
Тes
(С)
Комфортность P
(гПа)
Po
(гПа)
Тmin
(С)
Tmax
(С)
R
(мм)
R24
(мм)
S
(см)
09 19.04 В 6 20 км 10/10 600 м
[Sc]
+1.2 -1.0 85 -5 -5 1002.1 999.9 +3.8
12 19.04 В 7-10
{10}
20 км 10/10 600 м
[Sc]
+1.2 -0.7 87 -6 -6 1001.8 999.6
15 19.04 В 6-10
{10}
20 км 10/10 600 м
[Sc]
+0.9 -1.8 82 -5 -5 1001.6 999.4
18 19.04 СВ 8-12
{12}
20 км 10/10 600 м
[Sc]
+0.6 -2.7 79 -7 -7 1001.6 999.4
21 19.04 СВ 7-12
{12}
20 км 8/5 600 м
[Cu Sc Ci fib]
+1.5 -2.6 74 -5 -4 1002.0 999.8 +0.6 0
00 20.04 СВ 9-12
{13}
20 км 9/9 600 м
[Sc]
+2.1 -2.4 72 -5 -5 1002.0 999.8
03 20.04 СВ 9-13
{14}
20 км 9/9 600 м
[Sc]
+2.4 -0.5 81 -5 -5 1002.0 999.8
06 20.04 С 10-12
{14}
20 км 8/6 600 м
[Sc Ac lent]
+1.6 -0.2 88 -6 -6 1002.8 1000.6
09 20.04 С 8-10
{12}
20 км 4/4 600 м
[Sc]
+0.4 -1.4 88 -7 -7 1004.5 1002.3 +2.6
12 20.04 С 7
{10}
20 км 4/4 600 м
[Sc]
+0.4 -2.5 81 -6 -6 1004.8 1002.6
15 20.04 С 4 20 км 4/4 600 м
[Sc]
-0.5 -3.1 83 -6 -6 1005.7 1003.4
18 20.04 СВ 2 20 км 6/6 600 м
[Sc]
-1.2 -3.6 84 -5 -5 1006.2 1004.0
21 20.04 СЗ 3 20 км 3/3 600 м
[Cu hum]
+1.3 -1.5 82 -3 -0 1006.5 1004.3 -1.3 0
00 21.04 СЗ 5 20 км 6/6 600 м
[Sc]
+2.1 -3.2 68 -3 -1 1006.7 1004.5
03 21.04 СЗ 5 20 км 4/4 600 м
[Sc]
+3.5 -2.5 65 -1 +2 1007.3 1005.1
06 21.04 СЗ 4 20 км 3/3 600 м
[Sc]
+2.9 -2.1 70 -2 -0 1007.5 1005.3
09 21.04 С 3 20 км 8/8 600 м
[Sc]
+0.2 -1.2 90 -5 -5 1008.6 1006.3 +3.7
12 21.04 СЗ 3 20 км 9/9 600 м
[Sc]
+0.4 -1.1 90 -4 -4 1009.0 1006.8
15 21.04 СЗ 3 20 км 8/8 600 м
[Sc]
+0.4 -1.2 89 -4 -4 1008.8 1006.6
18 21.04 СВ 1 20 км 9/9 600 м
[Sc]
-0.2 -2.0 88 -2 -2 1008.4 1006.2
21 21.04 С 2 20 км 9/9 600 м
[Sc]
+1.3 -1.3 83 -2 -2 1008.4 1006.1 -0.3 0
00 22.04 Ю 2 20 км 6/6 600 м
[Sc]
+3.1 -5.5 53 +1 +5 1006.8 1004.6
03 22.04 ЮВ 4 20 км в посл. час крупа {ливн. осадки} 9/9 600 м
[Sc]
+2.5 -0.5 81 -2 -2 1005.0 1002.7
06 22.04 В 6
{11}
20 км {ливн. осадки} 10/10 600 м
[Sc]
+2.5 -0.6 80 -3 -3 1002.0 999.8
09 22.04 СВ 7
{14}
20 км {ливн. осадки} 10/10 600 м
[Sc]
+1.7 -0.2 87 -5 -5 1000.0 997.8 +4.1 0.4
12 22.04 СВ 10-13
{15}
10 км слабый ливневой снег 10/10 600 м
[Cb cap]
+1.9 +0.6 91 -6 -6 997.3 995.1
15 22.04 СВ 11-15
{19}
10 км слабый ливневой снег 10/10 600 м
[Cb cap]
+1.8 +0.2 89 -6 -6 995.4 993.2
18 22.04 СВ 11-22
{22}
10 км слабый ливневой дождь 10/10 200 м
[Cb cap]
+1.0 +0.1 94 -7 -7 995.3 993.1
21 22.04 СВ 11-18
{22}
10 км слабый ливневой снег 10/10 300 м
[Cb cap]
+1.0 -1.1 86 -7 -7 996.5 994.3 +0.3 1 0
00 23.04 СВ 12-19
{21}
10 км слабый ливневой снег 10/10 300 м
[Cb cap]
+1.4 -1.3 82 -7 -7 996.7 994.5
03 23.04 СВ 12-18
{21}
20 км в посл. час ливневой снег 9/9 600 м
[Cb cap]
+1.0 -0.2 92 -8 -8 997.1 994.9
06 23.04 СВ 11-15
{20}
20 км {ливн. осадки} 8/8 600 м
[Cu med, cong]
+1.4 -3.3 71 -6 -6 997.9 995.7
09 23.04 С 10-15
{18}
10 км слабый ливневой снег 9/9 300 м
[Cb cap]
+0.1 -1.3 90 -8 -8 999.4 997.2 +2.4 0.4
12 23.04 С 9-12
{17}
10 км слабый ливневой снег 8/8 300 м
[Cb cap]
-0.1 -1.6 90 -8 -8 999.7 997.4
15 23.04 С 12-15
{17}
20 км {ливн. осадки} 9/9 600 м
[Cb cap]
-0.1 -2.6 83 -9 -9 999.7 997.5
18 23.04 С 9-11
{15}
20 км {ливн. осадки} 10/10 600 м
[Sc]
-0.4 -3.4 80 -8 -8 999.9 997.7
21 23.04 С 11-13
{13}
10 км слабый ливневой снег 10/10 300 м
[Cb cap]
-0.3 -3.8 77 -9 -9 999.6 997.4 -0.9 0.3 1
00 24.04 СЗ 9-13
{14}
20 км {ливн. осадки} 9/8 600 м
[Cu med, cong Ci]
+0.9 -3.3 73 -6 -6 999.1 996.9
03 24.04 СЗ 10-13
{13}
20 км 10/8 600 м
[Cu med, cong Cs]
+1.0 -2.8 76 -7 -7 998.6 996.4
06 24.04 СЗ 10-13
{14}
20 км 10/8 600 м
[Cu med, cong Cs]
+0.3 -3.3 77 -8 -8 998.6 996.4
09 24.04 СЗ 8-10
{13}
20 км 8/3 600 м
[Cu hum Cs]
0.0 -3.4 78 -7 -7 999.3 997.1 +1.1
12 24.04 СЗ 9-12
{12}
20 км 6/6 600 м
[Sc]
+0.3 -4.0 73 -7 -7 999.9 997.6
15 24.04 СЗ 8-10
{13}
20 км 4/4 600 м
[Sc]
+0.4 -4.3 71 -7 -7 1000.7 998.5
18 24.04 СЗ 9-12
{14}
20 км 4/4 600 м
[Cu hum]
+0.7 -4.3 69 -7 -7 1002.0 999.8
21 24.04 СЗ 9-13
{14}
20 км 8/8 600 м
[Cu Sc]
+1.3 -3.2 72 -6 -6 1004.2 1002.0 0.0 0
00 25.04 СЗ 9-11
{13}
20 км 1/1 600 м
[Cu med, cong]
+2.6 -3.6 64 -4 -3 1005.8 1003.6
03 25.04 З 6
{11}
20 км ясно +4.1 -1.3 68 -1 +3 1007.2 1005.0
06 25.04 З 5 20 км ясно +3.2 -1.3 72 -2 -0 1008.4 1006.2
09 25.04 ЮЗ 4 20 км 3/3 600 м
[Sc]
+2.1 -0.3 84 -3 -3 1010.2 1007.9 +4.1
12 25.04 ЮЗ 4 20 км 4/4 600 м
[Sc]
+2.2 +0.1 86 -3 -3 1011.1 1008.9
15 25.04 Ю 4 20 км 4/4 600 м
[Sc]
+2.1 +0.2 87 -3 -3 1011.4 1009.2
18 25.04 Ю 6 20 км 9/4 600 м
[Sc Ci fib]
+1.8 +1.0 94 -5 -5 1011.7 1009.5
21 25.04 Ю 10-13
{13}
20 км 6/4 600 м
[Sc Ci fib]
+2.6 +1.4 92 -5 -5 1010.9 1008.7 +1.4 0
00 26.04 Ю 11-14
{16}
20 км 10/0
[As op]
+3.1 +0.3 82 -4 -4 1009.8 1007.6
03 26.04 Ю 11-16
{17}
20 км 10/0
[Cs]
+3.3 +0.7 83 -4 -4 1009.1 1006.9
06 26.04 Ю 11-15
{16}
4000 м дымка 9/9 300 м
[St]
+3.1 +0.7 84 -4 -4 1008.5 1006.3

 

Местоположение метеостанции Остров Беринга (Камчатский край, Россия): широта 55.20 долгота 165.90 высота над уровнем моря 18 м.

В архиве по умолчанию представлена погода на Острове Беринга за последнюю неделю. Архивные данные за месяц целиком и за предыдущие месяцы, начиная с января 2011 года, Вы можете получить, выбрав интересующий диапазон дат из раскрывающегося списка и нажав кнопку "Ввод!".


*Определитесь, кто Вы:
робот инопланетянин человек

Внимание! Время в таблицах - всемирное. Для получения местного времени необходимо прибавить поправку, которая на Острове Беринга равна 12 ч.

Смотрите также архив погоды в соседних городах и на ближайших метеорологических станциях:

Погода на Мысе Африка (Камчатский край, Россия) (196 км)
Погода в Усть-Камчатске (Камчатский край, Россия) (230 км)
Погода на Мысе Озерном (Камчатский край, Россия) (319 км)
Погода в Ключах (Камчатский край, Россия) (343 км)
Погода в Козыревске (Камчатский край, Россия) (394 км)
Погода в Семячике (Камчатский край, Россия) (404 км)
Погода в Долиновке (Камчатский край, Россия) (438 км)
Погода в Эссо (Камчатский край, Россия) (460 км)
Погода в Мильково (Камчатский край, Россия) (476 км)
Погода в Оссоре (Камчатский край, Россия) (481 км)

Пояснения к столбцам:

Ветер - указаны скорость ветра в м/с - средняя за 10 мин, порывы в срок и между сроками (в фигурных скобках) и направление, откуда дует ветер: С - северный, СВ - северо-восточный, В - восточный, ЮВ - юго-восточный, Ю - южный, ЮЗ - юго-западный, З - западный, СЗ - северо-западный.
Видимость - горизонтальная дальность видимости в метрах или километрах. При видимости от 1 до 10 км при отсутствии осадков обычно наблюдается дымка, при ухудшении видимости до 1 км и менее - туман. В сухую погоду видимость может ухудшаться дымом, пылью или мглою.
Явления - указаны атмосферные явления, наблюдавшиеся в срок или в последний час перед сроком; фигурными скобками обозначены явления, наблюдавшиеся между сроками (за 1-3 часа до срока); квадратными скобками обозначены град или гололедные отложения с указанием их диаметра в мм.
Облачность - указаны через наклонную черту общая и нижняя облачность в баллах и высота нижней границы облаков в метрах; квадратными скобками обозначены формы облаков: Ci - перистые, Cs - перисто-слоистые, Cc - перисто-кучевые, Ac - высококучевые, As - высокослоистые, Sc - слоисто-кучевые, Ns - слоисто-дождевые, Cu - кучевые, Cb - кучево-дождевые. Подробнее классификацию облаков см. в Атласе облаков (PDF).
T - Температура воздуха - температура, измеренная на высоте 2 м над землей.
Td - Температура точки росы - температура, при понижении до которой содержащийся в воздухе водяной пар достигнет насыщения.
f - Относительная влажность воздуха - влажноcть воздуха, измеренная на высоте 2 м над землей.
Te - Эффективная температура - температура, которую ощущает одетый по сезону человек в тени. Характеристика душности погоды. При расчете учитывается влияние влажности воздуха и скорости ветра на теплоощущения человека.
Tes - Эффективная температура на солнце - температура, которую ощущает человек, с поправкой на солнечный нагрев. Характеристика знойности погоды. Зависит от высоты солнца над горизонтом, облачности и скорости ветра. Ночью, в пасмурную погоду, а также при ветре 12 м/с и более поправка равна нулю.
P - Атмосферное давление - приведенное к уровню моря атмосферное давление.
Po - Атмосферное давление - измеренное на уровне метеостанции атмосферное давление.
Tmin - Минимальная температура - минимум температуры воздуха на высоте 2 м над землей.
Tmax - Максимальная температура - максимум температуры воздуха на высоте 2 м над землей.
R - Количество осадков - Количество выпавших осадков за период времени, мм. При наведении курсора мыши на число - период времени, за который выпало указанное количество осадков.
R24 - Количество осадков - Количество выпавших осадков за 24 часа, мм.
S - Снежный покров - Высота снежного покрова, см. При наведении курсора мыши на число - состояние снежного покрова и степень покрытия местности в баллах.